This is the latest recevied weather packets stored in our database for station/object YO6LRV-3. If no packets are shown the sender has not sent any weather packets the latest 10 day(s).
| Time | Temp. | Humidity | Pressure | Rain* | Wind** | Luminosity | Snow |
|---|---|---|---|---|---|---|---|
| 1777809965 | 21.67° C | 28% | 1020 hPa | - | - | - | - |
| 1777809065 | 21.67° C | 30% | 1020.1 hPa | - | - | - | - |
| 1777808165 | 21.11° C | 28% | 1020.2 hPa | - | - | - | - |
| 1777807265 | 21.11° C | 30% | 1020.3 hPa | - | - | - | - |
| 1777806365 | 20° C | 34% | 1020.5 hPa | - | - | - | - |
| 1777805465 | 18.89° C | 32% | 1020.7 hPa | - | - | - | - |
| 1777804564 | 17.78° C | 33% | 1020.9 hPa | - | - | - | - |
| 1777803664 | 16.67° C | 36% | 1020.9 hPa | - | - | - | - |
| 1777802764 | 15° C | 41% | 1021.1 hPa | - | - | - | - |
| 1777801864 | 13.89° C | 42% | 1021.2 hPa | - | - | - | - |
| 1777800064 | 12.78° C | 43% | 1021.5 hPa | - | - | - | - |
| 1777799157 | 11.67° C | 45% | 1020.9 hPa | - | - | - | - |
| 1777798264 | 11.67° C | 45% | 1021.8 hPa | - | - | - | - |
| 1777797363 | 11.11° C | 47% | 1021.8 hPa | - | - | - | - |
| 1777796463 | 10.56° C | 48% | 1021.5 hPa | - | - | - | - |
| 1777795563 | 10.56° C | 48% | 1022.1 hPa | - | - | - | - |
| 1777794663 | 10° C | 52% | 1022 hPa | - | - | - | - |
| 1777793763 | 10° C | 54% | 1022 hPa | - | - | - | - |
| 1777792863 | 9.44° C | 55% | 1021.8 hPa | - | - | - | - |
| 1777791965 | 8.33° C | 58% | 1021.9 hPa | - | - | - | - |
| 1777791065 | 7.78° C | 59% | 1021.8 hPa | - | - | - | - |
| 1777790165 | 7.78° C | 59% | 1021.8 hPa | - | - | - | - |
| 1777789265 | 7.22° C | 60% | 1021.7 hPa | - | - | - | - |
| 1777788365 | 6.11° C | 60% | 1020.9 hPa | - | - | - | - |
| 1777787465 | 6.11° C | 60% | 1021.7 hPa | - | - | - | - |
* Rain since midnight (hover to see other rain measurements)
** Current wind speed in m/s (hover to see current wind gust speed)